Погода в Кэтрине

Австралия     14°27′55″S   132°15′47″E
темп.,
°C
ветер,
м/с
пор.,
м/с
влажн.,
%
обл.,
%
осадки,
мм/ч
давл.,
гПа
погр.,
м
14 августа, вс
вс1400:30+21в4115637 0.0 1014258
03:30+19вюв310706 0.0 1014297
06:30+17вюв24782 0.0 101593
09:30+25вюв69400 0.0 1016835
12:30+32вюв57230 0.0 10142516
15:30+34юв56155 0.0 10103036
18:30+28ююв471739 0.0 1011132
21:30+22юв4112211 0.0 1014193
15 августа, пн
пн1500:30+20вюв38215 0.0 1014166
03:30+16вюв39215 0.0 1014171
06:30+16вюв4131826 0.0 1015272
09:30+24вюв6101311 0.0 1016695
12:30+30юв6885 0.0 10141886
15:30+32юв6765 0.0 10102293
18:30+26вюв3584 0.0 101160
21:30+19вюв35124 0.0 101458
16 августа, вт
вт1600:30+15юв23165 0.0 101523
03:30+14вюв36295 0.0 101593
06:30+13юв310445 0.0 1016166
09:30+24вюв612155 0.0 1016741
12:30+31вюв79634 0.0 10141777
15:30+33вюв7855 0.0 10112185
18:30+27вюв47860 0.0 101293
21:30+20в471328 0.0 1015111
17 августа, ср
ср1700:30+16в35235 0.0 101570
03:30+14вюв393042 0.0 1015131
06:30+13вюв394332 0.0 1017151
09:30+24вюв610285 0.0 1018721
12:30+31вюв56118 0.0 10151668
15:30+33вюв56739 0.0 10112187
18:30+26вюв33105 0.0 101240
21:30+19в34160 0.0 101448
18 августа, чт
чт1800:30+16юв33200 0.0 101539
03:30+14вюв36360 0.0 101488
06:30+12вюв34530 0.0 101661
09:30+23вюв36320 0.0 1017514
12:30+31вюв44132 0.0 10141789
15:30+34вюв4490 0.0 10102294
18:30+27вюв33125 0.0 101128
21:30+20вюв34175 0.0 101459